QPF
0.00 0.00 0.00 0.00 0.00 0.00 0.00 0.00 0.00 0.00 0.00 0.00 0.00 0.00 0.00 0.00 0.00 0.00 0.00 0.00 0.00 0.00 0.00 0.00 0.00 0.00 0.00 0.00 0.00 0.00 0.00 0.00 0.00 0.00 0.00 0.00 0.00 0.00 0.00 0.00 0.00 0.00 0.00 0.00
0.00 0.00 0.00 0.00 0.00 0.00 0.00 0.00 0.00 0.00 0.00 0.00 0.00 0.00 0.00 0.00 0.00 0.00 0.00 0.00 0.00 0.00 0.00 0.00 0.00 0.00 0.00 0.00 0.00 0.00 0.00 0.00 0.00 0.00 0.00 0.00 0.00 0.00 0.00 0.00 0.00 0.00 0.00 0.00
0.00 0.00 0.00 0.00 0.00 0.00 0.00 0.00 0.00 0.00 0.00 0.00 0.00 0.00 0.00 0.00 0.00 0.00 0.00 0.00 0.00 0.00 0.00 0.00 0.00 0.00 0.00 0.00 0.00 0.00 0.00 0.00 0.00 0.00 0.00 0.00 0.00 0.00 0.00 0.00 0.00 0.00 0.00 0.00
0.00 0.00 0.00 0.00 0.00 0.00 0.00 0.00 0.00 0.00 0.00 0.00 0.00 0.00 0.00 0.00 0.00 0.00 0.00 0.00 0.00 0.00 0.00 0.00 0.00 0.00 0.00 0.00 0.00 0.00 0.00 0.00 0.00 0.00 0.00 0.00 0.00 0.00 0.00 0.00 0.00 0.00 0.00 0.00
0.00 0.00 0.00 0.00 0.00 0.00 0.00 0.00 0.00 0.00 0.00 0.00 0.00 0.00 0.00 0.00 0.00 0.00 0.00 0.00 0.00 0.00 0.00 0.00 0.00 0.00 0.00 0.00 0.00 0.00 0.00 0.00 0.00 0.00 0.00 0.00 0.00 0.00 0.00 0.00 0.00 0.00 0.00 0.00
0.00 0.00 0.00 0.00 0.00 0.00 0.00 0.00 0.00 0.00 0.00 0.00 0.00 0.00 0.00 0.00 0.00 0.00 0.00 0.00 0.00 0.00 0.00 0.00 0.00 0.00 0.00 0.00 0.00 0.00 0.00 0.00 0.00 0.00 0.00 0.00 0.00 0.00 0.00 0.00 0.00 0.00 0.00 0.00
0.00 0.00 0.00 0.00 0.00 0.00 0.00 0.00 0.00 0.00 0.00 0.00 0.00 0.00 0.00 0.00 0.00 0.00 0.00 0.00 0.00 0.00 0.00 0.00 0.00 0.00 0.00 0.00 0.00 0.00 0.00 0.00 0.00 0.00 0.00 0.00 0.00 0.00 0.00 0.00 0.00 0.00 0.00 0.00
0.00 0.00 0.00 0.00 0.00 0.00 0.00 0.00 0.00 0.00 0.00 0.00 0.00 0.00 0.00 0.00 0.00 0.00 0.00 0.00 0.00 0.00 0.00 0.00 0.00 0.00 0.00 0.00 0.00 0.00 0.00 0.00 0.00 0.00 0.00 0.00 0.00 0.00 0.00 0.00 0.00 0.00 0.00 0.00
0.00 0.00 0.00 0.00 0.00 0.00 0.00 0.00 0.00 0.00 0.00 0.00 0.00 0.00 0.00 0.00 0.00 0.00 0.00 0.00 0.00 0.00 0.00 0.00 0.00 0.00 0.00 0.00 0.00 0.00 0.00 0.00 0.00 0.00 0.00 0.00 0.00 0.00 0.00 0.00 0.00 0.00 0.00 0.00
0.00 0.00 0.00 0.00 0.00 0.00 0.00 0.00 0.00 0.00 0.00 0.00 0.00 0.00 0.00 0.00 0.00 0.00 0.00 0.00 0.00 0.00 0.00 0.00 0.00 0.00 0.00 0.00 0.00 0.00 0.00 0.00 0.00 0.00 0.00 0.00 0.00 0.00 0.00 0.00 0.00 0.00 0.00 0.00
0.00 0.00 0.00 0.00 0.00 0.00 0.00 0.00 0.00 0.00 0.00 0.00 0.00 0.00 0.00 0.00 0.00 0.00 0.00 0.00 0.00 0.00 0.00 0.00 0.00 0.00 0.00 0.00 0.00 0.00 0.00 0.00 0.00 0.00 0.00 0.00 0.00 0.00 0.00 0.00 0.00 0.00 0.00 0.00
0.00 0.00 0.00 0.00 0.00 0.00 0.00 0.00 0.00 0.00 0.00 0.00 0.00 0.00 0.00 0.00 0.00 0.00 0.00 0.00 0.00 0.00 0.00 0.00 0.00 0.00 0.00 0.00 0.00 0.00 0.00 0.00 0.00 0.00 0.00 0.00 0.00 0.00 0.00 0.00 0.00 0.00 0.00 0.00
0.00 0.00 0.00 0.00 0.00 0.00 0.00 0.00 0.00 0.00 0.00 0.00 0.00 0.00 0.00 0.00 0.00 0.00 0.00 0.00 0.00 0.00 0.00 0.00 0.00 0.00 0.00 0.00 0.00 0.00 0.00 0.00 0.00 0.00 0.00 0.00 0.00 0.00 0.00 0.00 0.00 0.00 0.00 0.00
0.00 0.00 0.00 0.00 0.00 0.00 0.00 0.00 0.00 0.00 0.00 0.00 0.00 0.00 0.00 0.00 0.00 0.00 0.00 0.00 0.00 0.00 0.00 0.00 0.00 0.00 0.00 0.00 0.00 0.00 0.00 0.00 0.00 0.00 0.00 0.00 0.00 0.00 0.00 0.00 0.00 0.00 0.00 0.00
0.00 0.00 0.00 0.00 0.00 0.00 0.00 0.00 0.00 0.00 0.00 0.00 0.00 0.00 0.00 0.00 0.00 0.00 0.00 0.00 0.00 0.00 0.00 0.00 0.00 0.00 0.00 0.00 0.00 0.00 0.00 0.00 0.00 0.00 0.00 0.00 0.00 0.00 0.00 0.00 0.00 0.00 0.00 0.00
0.00 0.00 0.00 0.00 0.00 0.00 0.00 0.00 0.00 0.00 0.00 0.00 0.00 0.00 0.00 0.00 0.00 0.00 0.00 0.00 0.00 0.00 0.00 0.00 0.00 0.00 0.00 0.00 0.00 0.00 0.00 0.00 0.00 0.00 0.00 0.00 0.00 0.00 0.00 0.00 0.00 0.00 0.00 0.00
0.00 0.00 0.00 0.00 0.00 0.00 0.00 0.00 0.00 0.00 0.00 0.00 0.00 0.00 0.00 0.00 0.00 0.00 0.00 0.00 0.00 0.00 0.00 0.00 0.00 0.00 0.00 0.00 0.00 0.00 0.00 0.00 0.00 0.00 0.00 0.00 0.00 0.00 0.00 0.00 0.00 0.00 0.00 0.00
0.00 0.00 0.00 0.00 0.00 0.00 0.00 0.00 0.00 0.00 0.00 0.00 0.00 0.00 0.00 0.00 0.00 0.00 0.00 0.00 0.00 0.00 0.00 0.00 0.00 0.00 0.00 0.00 0.00 0.00 0.00 0.00 0.00 0.00 0.00 0.00 0.00 0.00 0.00 0.00 0.00 0.00 0.00 0.00
0.00 0.00 0.00 0.00 0.00 0.00 0.00 0.00 0.00 0.00 0.00 0.00 0.00 0.00 0.00 0.00 0.00 0.00 0.00 0.00 0.00 0.00 0.00 0.00 0.00 0.00 0.00 0.00 0.00 0.00 0.00 0.00 0.00 0.00 0.00 0.00 0.00 0.00 0.00 0.00 0.00 0.00 0.00 0.00
0.00 0.00 0.00 0.00 0.00 0.00 0.00 0.00 0.00 0.00 0.00 0.00 0.00 0.00 0.00 0.00 0.00 0.00 0.00 0.00 0.00 0.00 0.00 0.00 0.00 0.00 0.00 0.00 0.00 0.00 0.00 0.00 0.00 0.00 0.00 0.00 0.00 0.00 0.00 0.00 0.00 0.00 0.00 0.00
0.00 0.00 0.00 0.00 0.00 0.00 0.00 0.00 0.00 0.00 0.00 0.00 0.00 0.00 0.00 0.00 0.00 0.00 0.00 0.00 0.00 0.00 0.00 0.00 0.00 0.00 0.00 0.00 0.00 0.00 0.00 0.00 0.00 0.00 0.00 0.00 0.00 0.00 0.00 0.00 0.00 0.00 0.00 0.00
0.00 0.00 0.00 0.00 0.00 0.00 0.00 0.00 0.00 0.00 0.00 0.00 0.00 0.00 0.00 0.00 0.00 0.00 0.00 0.00 0.00 0.00 0.00 0.00 0.00 0.00 0.00 0.00 0.00 0.00 0.00 0.00 0.00 0.00 0.00 0.00 0.00 0.00 0.00 0.00 0.00 0.00 0.00 0.00
0.00 0.00 0.00 0.00 0.00 0.00 0.00 0.00 0.00 0.00 0.00 0.00 0.00 0.00 0.00 0.00 0.00 0.00 0.00 0.00 0.00 0.00 0.00 0.00 0.00 0.00 0.00 0.00 0.00 0.00 0.00 0.00 0.00 0.00 0.00 0.00 0.00 0.00 0.00 0.00 0.00 0.00 0.00 0.00
0.00 0.00 0.00 0.00 0.00 0.00 0.00 0.00 0.00 0.00 0.00 0.00 0.00 0.00 0.00 0.00 0.00 0.00 0.00 0.00 0.00 0.00 0.00 0.00 0.00 0.00 0.01 0.00 0.00 0.00 0.00 0.00 0.00 0.00 0.00 0.00 0.00 0.00 0.00 0.00 0.00 0.00 0.00 0.00
0.00 0.00 0.00 0.00 0.00 0.00 0.00 0.00 0.00 0.00 0.00 0.00 0.00 0.00 0.00 0.00 0.00 0.00 0.00 0.00 0.00 0.00 0.00 0.00 0.00 0.00 0.00 0.00 0.00 0.00 0.00 0.00 0.00 0.00 0.00 0.00 0.00 0.00 0.00 0.00 0.00 0.00 0.00 0.00
0.00 0.00 0.00 0.00 0.00 0.00 0.00 0.00 0.00 0.00 0.00 0.00 0.00 0.00 0.00 0.00 0.00 0.00 0.00 0.00 0.00 0.00 0.00 0.00 0.00 0.00 0.00 0.00 0.00 0.00 0.00 0.00 0.00 0.00 0.00 0.00 0.00 0.00 0.00 0.00 0.00 0.00 0.00 0.00
0.00 0.00 0.00 0.00 0.00 0.00 0.00 0.00 0.00 0.00 0.00 0.00 0.00 0.00 0.00 0.00 0.00 0.00 0.00 0.00 0.00 0.00 0.00 0.00 0.00 0.00 0.00 0.00 0.00 0.00 0.00 0.00 0.00 0.00 0.00 0.00 0.00 0.00 0.00 0.00 0.00 0.00 0.00 0.00
MSLP
1025.07 1024.81 1024.74 1024.48 1024.72 1025.00 1024.92 1024.23 1024.19 1019.92 1021.64 1021.02 1021.72 1021.79 1021.93 1022.10 1021.95 1021.82 1021.79 1021.66 1021.59 1021.59 1021.46 1021.25 1021.00 1020.69 1020.31 1019.99 1019.79 1019.50 1019.12 1018.89 1018.48 1017.96 1017.72 1017.37 1016.81 1016.34 1016.00 1015.79 1015.30 1014.84 1014.30 1013.82
1025.81 1025.10 1024.63 1023.89 1023.80 1023.55 1023.43 1023.27 1022.82 1022.20 1021.25 1021.91 1022.21 1022.23 1022.32 1022.20 1022.09 1022.21 1021.94 1021.62 1021.43 1021.30 1021.13 1020.78 1020.57 1020.32 1019.96 1019.49 1018.98 1018.91 1018.90 1018.59 1018.14 1017.78 1017.47 1016.98 1016.50 1016.12 1015.66 1015.30 1014.84 1014.42 1013.93 1013.47
1026.06 1025.45 1025.14 1024.11 1022.29 1022.15 1022.39 1022.38 1022.49 1022.74 1022.73 1022.88 1022.91 1022.83 1022.86 1022.46 1022.23 1021.98 1021.70 1021.40 1021.01 1020.64 1020.47 1020.27 1020.18 1020.00 1019.85 1019.37 1018.91 1018.49 1018.24 1017.98 1017.71 1017.30 1017.06 1016.82 1016.32 1015.72 1015.29 1014.78 1014.42 1013.90 1013.39 1012.94
1026.80 1026.30 1024.98 1022.65 1022.09 1022.03 1022.31 1022.68 1022.71 1023.22 1023.41 1023.59 1023.49 1023.28 1022.98 1022.39 1022.07 1021.70 1021.20 1020.89 1020.71 1020.41 1020.11 1019.82 1019.55 1019.30 1019.30 1019.17 1018.78 1018.15 1017.86 1017.59 1017.15 1016.77 1016.78 1016.42 1016.04 1015.28 1014.70 1014.37 1013.92 1013.27 1012.73 1012.30
1027.15 1026.72 1024.16 1022.53 1022.42 1022.47 1022.50 1023.71 1023.86 1024.05 1024.07 1023.85 1023.43 1023.02 1022.69 1022.14 1021.58 1021.00 1020.40 1019.82 1019.86 1019.83 1019.66 1019.35 1019.40 1018.89 1018.98 1018.71 1018.30 1018.00 1017.43 1017.11 1016.71 1016.46 1016.32 1015.99 1015.42 1014.68 1014.10 1013.76 1013.21 1012.65 1012.09 1011.29
1027.03 1026.43 1025.09 1023.64 1023.04 1022.58 1022.57 1023.61 1024.07 1024.16 1024.06 1023.90 1023.52 1022.76 1021.42 1021.28 1021.12 1020.58 1020.03 1019.67 1019.35 1019.17 1019.11 1019.11 1018.64 1018.57 1018.62 1018.23 1017.75 1017.42 1016.92 1016.52 1016.29 1016.04 1015.77 1015.37 1014.85 1014.23 1013.66 1013.25 1012.60 1011.99 1011.23 1010.67
1026.20 1025.74 1024.19 1023.66 1023.28 1022.78 1023.61 1024.44 1024.11 1024.17 1024.10 1023.85 1023.68 1023.40 1021.60 1021.10 1020.66 1020.47 1019.74 1019.19 1018.86 1018.73 1018.78 1018.52 1018.22 1018.21 1017.92 1017.52 1017.04 1016.51 1016.24 1015.95 1015.59 1015.19 1014.89 1014.51 1014.06 1013.54 1013.05 1012.52 1011.94 1011.41 1010.73 1009.83
1026.01 1025.60 1024.89 1023.85 1023.58 1024.48 1024.52 1024.13 1024.29 1023.91 1023.85 1023.50 1023.16 1022.43 1021.72 1020.98 1020.49 1019.83 1019.23 1018.71 1018.37 1018.28 1018.11 1017.80 1017.53 1017.60 1017.30 1016.79 1016.15 1015.86 1015.54 1015.16 1014.76 1014.33 1014.01 1013.60 1013.30 1012.61 1012.22 1011.87 1011.37 1010.63 1010.01 1009.06
1025.84 1024.29 1023.84 1023.73 1024.20 1024.23 1024.29 1024.21 1024.12 1023.85 1023.39 1023.27 1022.72 1022.01 1021.37 1020.65 1020.04 1019.34 1018.70 1018.14 1017.79 1017.87 1017.62 1017.23 1016.84 1016.73 1016.51 1015.62 1015.32 1014.97 1014.74 1014.27 1013.78 1013.34 1012.97 1012.64 1012.40 1011.82 1011.39 1011.02 1010.66 1009.95 1009.34 1008.46
1025.90 1024.61 1024.08 1023.83 1023.70 1023.71 1023.81 1023.92 1023.58 1023.31 1022.92 1022.54 1022.25 1021.64 1020.99 1020.33 1019.68 1018.92 1018.15 1017.65 1017.33 1017.24 1016.90 1016.52 1015.98 1015.66 1015.40 1014.97 1014.66 1014.39 1013.99 1013.40 1012.89 1012.50 1011.92 1011.60 1011.34 1011.01 1010.62 1010.13 1009.76 1009.16 1008.54 1007.78
1025.70 1024.98 1024.48 1024.19 1024.03 1023.78 1023.55 1023.59 1023.30 1022.83 1022.45 1021.99 1021.44 1020.81 1020.23 1019.51 1018.72 1018.03 1017.43 1016.96 1016.77 1016.56 1016.31 1015.83 1015.28 1014.73 1014.34 1014.08 1013.86 1013.65 1013.19 1012.60 1012.06 1011.61 1011.15 1010.65 1010.27 1009.94 1009.57 1009.03 1008.91 1008.25 1007.54 1007.10
1025.00 1024.64 1024.52 1023.98 1023.58 1023.30 1023.30 1023.03 1022.61 1022.38 1021.89 1021.31 1020.83 1020.12 1019.32 1018.70 1017.89 1017.44 1016.93 1016.38 1016.09 1015.78 1015.56 1014.95 1014.37 1013.91 1013.36 1012.96 1012.89 1012.66 1012.27 1011.64 1011.08 1010.72 1010.22 1009.83 1009.41 1008.69 1008.25 1007.98 1007.61 1007.11 1006.59 1006.23
1024.69 1023.98 1023.88 1023.50 1023.07 1022.51 1022.56 1022.30 1022.01 1021.79 1021.05 1020.54 1019.72 1019.15 1018.49 1017.88 1017.12 1016.53 1015.97 1015.53 1015.17 1014.79 1014.31 1013.95 1013.42 1012.97 1012.17 1011.83 1011.79 1011.49 1011.12 1010.56 1010.17 1009.64 1009.31 1008.90 1008.43 1008.16 1007.53 1006.36 1006.40 1005.99 1005.51 1005.05
1023.99 1023.82 1023.49 1022.71 1022.47 1021.87 1021.77 1021.32 1021.04 1020.63 1020.14 1019.50 1018.70 1018.04 1017.44 1016.86 1016.25 1015.81 1015.25 1014.64 1014.16 1013.89 1013.46 1012.99 1012.45 1011.80 1011.03 1010.91 1010.72 1010.34 1009.91 1009.46 1009.17 1008.55 1008.26 1007.92 1007.57 1007.17 1006.86 1006.32 1005.38 1004.87 1004.43 1004.00
1023.15 1023.01 1022.74 1022.00 1021.74 1021.55 1021.11 1020.71 1020.35 1019.75 1018.95 1018.26 1017.58 1017.12 1016.57 1016.04 1015.43 1014.78 1014.19 1013.74 1013.37 1013.04 1012.55 1011.89 1011.41 1010.66 1010.25 1009.92 1009.63 1009.24 1008.89 1008.45 1008.03 1007.60 1007.24 1006.93 1006.62 1006.26 1005.83 1005.31 1004.64 1003.88 1003.27 1002.85
1022.60 1022.38 1022.05 1021.79 1021.31 1020.76 1020.30 1019.79 1019.46 1018.67 1017.95 1017.27 1016.73 1016.07 1015.53 1014.97 1014.39 1013.84 1013.36 1012.93 1012.72 1012.06 1011.21 1010.74 1010.23 1009.59 1009.23 1008.87 1008.56 1008.26 1007.79 1007.32 1006.99 1006.58 1006.12 1005.84 1005.48 1005.08 1004.61 1004.14 1003.57 1002.90 1002.23 1001.78
1022.70 1021.96 1021.30 1021.01 1020.62 1020.00 1019.39 1018.87 1018.34 1017.70 1017.04 1016.40 1015.69 1015.15 1014.64 1014.11 1013.54 1012.99 1012.35 1011.85 1011.39 1010.89 1010.46 1009.89 1009.27 1008.56 1008.31 1007.91 1007.70 1007.23 1006.83 1006.35 1005.99 1005.59 1005.16 1004.79 1004.35 1003.93 1003.43 1002.86 1002.29 1001.70 1001.04 1000.63
1021.72 1021.07 1020.59 1020.31 1019.79 1019.08 1018.39 1017.84 1017.22 1016.58 1016.01 1015.29 1014.70 1014.27 1013.81 1013.34 1012.69 1011.99 1011.37 1010.76 1010.43 1009.90 1008.95 1008.74 1008.35 1007.85 1007.31 1006.90 1006.64 1006.22 1005.87 1005.41 1004.98 1004.52 1004.05 1003.63 1003.15 1002.68 1002.15 1001.55 1001.00 1000.47 999.91 999.54
1020.53 1020.10 1019.50 1019.02 1018.43 1017.93 1017.36 1016.63 1015.99 1015.42 1014.86 1014.28 1013.81 1013.29 1012.78 1012.21 1011.59 1010.92 1010.43 1010.12 1009.66 1008.86 1007.75 1007.65 1007.08 1006.68 1006.30 1005.96 1005.63 1005.22 1004.82 1004.38 1003.91 1003.42 1002.94 1002.35 1001.82 1001.37 1000.81 1000.26 999.78 999.24 998.78 998.39
1019.49 1018.93 1018.47 1017.86 1017.23 1016.77 1016.05 1015.41 1014.90 1014.33 1013.81 1013.30 1012.72 1012.19 1011.63 1011.03 1010.51 1009.99 1009.62 1009.11 1008.56 1007.89 1007.09 1006.71 1006.25 1005.87 1005.46 1005.02 1004.60 1004.25 1003.80 1003.33 1002.81 1002.29 1001.76 1001.16 1000.57 999.94 999.41 998.92 998.48 998.01 997.80 997.70
1018.65 1017.95 1017.36 1016.72 1016.00 1015.49 1014.98 1014.38 1013.80 1013.21 1012.64 1012.24 1011.70 1011.11 1010.54 1009.95 1009.49 1009.07 1008.61 1007.99 1007.22 1006.73 1006.24 1005.82 1005.45 1005.05 1004.64 1004.19 1003.73 1003.23 1002.75 1002.22 1001.62 1000.94 1000.22 999.59 999.11 998.77 998.63 998.59 998.16 997.72 997.30 996.97
1017.57 1016.91 1016.16 1015.51 1014.95 1014.31 1013.80 1013.24 1012.73 1012.16 1011.64 1011.11 1010.61 1010.07 1009.51 1009.04 1008.65 1008.22 1007.75 1007.07 1006.33 1005.95 1005.50 1005.06 1004.74 1004.35 1003.87 1003.13 1002.63 1002.20 1001.69 1001.05 1000.40 999.94 999.71 999.55 999.11 998.64 998.29 997.98 997.63 997.16 996.73 996.27
1016.48 1015.82 1015.13 1014.50 1013.86 1013.20 1012.66 1012.25 1011.77 1011.27 1010.72 1010.24 1009.67 1009.14 1008.69 1008.21 1007.83 1007.41 1006.81 1006.20 1005.81 1005.32 1004.91 1004.55 1004.06 1003.40 1002.82 1002.32 1001.98 1001.48 1000.93 1000.59 1000.46 1000.04 999.76 999.35 998.92 998.48 997.99 997.53 997.11 996.72 996.42 996.21
1015.38 1014.77 1014.12 1013.44 1012.86 1012.38 1011.91 1011.26 1010.89 1010.43 1009.91 1009.30 1008.74 1008.22 1007.84 1007.32 1006.97 1006.46 1006.11 1005.64 1005.21 1004.82 1004.44 1003.94 1003.45 1002.90 1002.28 1002.03 1001.73 1001.33 1001.23 1000.90 1000.54 1000.10 999.84 999.37 998.97 998.49 998.00 997.69 997.46 997.27 997.08 996.91
1014.44 1013.81 1013.23 1012.61 1012.05 1011.51 1010.95 1010.61 1010.25 1009.79 1009.27 1008.68 1007.95 1007.59 1007.19 1006.78 1006.50 1005.82 1005.52 1005.12 1004.73 1004.40 1004.03 1003.56 1003.01 1002.55 1002.42 1002.24 1002.04 1001.81 1001.54 1001.20 1000.74 1000.43 1000.11 999.78 999.38 999.00 998.70 998.38 998.23 998.11 998.00 997.94
1013.68 1013.07 1012.50 1011.95 1011.43 1011.09 1010.87 1010.53 1010.11 1009.51 1009.02 1008.40 1007.73 1007.20 1006.72 1006.28 1005.93 1005.55 1005.18 1004.79 1004.42 1004.14 1003.84 1003.46 1003.26 1003.10 1002.92 1002.73 1002.55 1002.31 1002.03 1001.63 1001.25 1000.94 1000.65 1000.32 1000.05 999.80 999.59 999.40 999.27 999.22 999.24 999.31
1013.01 1012.47 1011.94 1011.39 1011.35 1011.05 1010.89 1010.38 1009.87 1009.32 1008.79 1008.26 1007.57 1006.94 1006.48 1005.99 1005.67 1005.31 1005.02 1004.69 1004.38 1004.11 1003.98 1004.02 1003.89 1003.62 1003.54 1003.36 1003.16 1002.95 1002.68 1002.34 1001.84 1001.71 1001.46 1001.21 1000.96 1000.81 1000.67 1000.57 1000.53 1000.53 1000.56 1000.61
Thickness
5523 5521 5516 5519 5516 5504 5483 5506 5490 5553 5515 5527 5502 5501 5488 5473 5469 5466 5464 5461 5456 5452 5448 5444 5443 5441 5441 5440 5438 5439 5441 5439 5440 5442 5440 5440 5443 5446 5446 5446 5450 5453 5457 5461
5468 5502 5503 5507 5507 5502 5501 5500 5496 5500 5506 5488 5472 5467 5463 5456 5453 5447 5446 5445 5440 5436 5434 5431 5428 5427 5426 5427 5429 5426 5423 5423 5423 5422 5421 5423 5425 5426 5428 5429 5432 5436 5439 5442
5478 5489 5468 5469 5502 5502 5491 5480 5479 5470 5467 5455 5449 5449 5443 5440 5435 5434 5432 5428 5425 5425 5422 5419 5415 5412 5410 5410 5409 5408 5407 5407 5404 5405 5405 5403 5405 5409 5409 5413 5414 5418 5421 5425
5446 5443 5428 5492 5481 5481 5472 5460 5453 5438 5430 5428 5428 5429 5424 5420 5416 5416 5415 5410 5406 5404 5402 5400 5398 5395 5391 5389 5389 5390 5390 5388 5388 5388 5385 5386 5386 5390 5393 5394 5396 5401 5405 5407
5421 5413 5456 5484 5463 5460 5455 5427 5420 5414 5409 5407 5408 5409 5406 5404 5403 5404 5403 5403 5394 5388 5384 5382 5375 5374 5370 5370 5368 5367 5369 5369 5368 5365 5365 5366 5368 5373 5375 5377 5380 5384 5388 5394
5417 5421 5425 5448 5434 5433 5433 5418 5408 5400 5395 5391 5388 5381 5407 5392 5387 5386 5384 5380 5375 5371 5366 5358 5359 5352 5349 5349 5349 5347 5349 5350 5349 5345 5344 5345 5348 5351 5354 5355 5361 5365 5371 5375
5424 5412 5420 5422 5417 5415 5400 5399 5384 5382 5378 5372 5364 5359 5375 5373 5373 5364 5365 5361 5356 5351 5343 5340 5337 5330 5330 5330 5329 5329 5329 5330 5330 5328 5327 5328 5329 5331 5334 5337 5341 5344 5350 5358
5393 5390 5382 5399 5393 5382 5376 5372 5364 5365 5356 5350 5348 5349 5349 5349 5344 5345 5345 5343 5337 5328 5325 5325 5321 5313 5313 5313 5312 5310 5310 5311 5312 5312 5311 5312 5312 5315 5314 5315 5319 5325 5330 5341
5380 5387 5379 5382 5370 5365 5356 5348 5345 5336 5340 5330 5329 5330 5328 5326 5325 5324 5323 5323 5318 5307 5305 5304 5303 5296 5296 5302 5299 5298 5296 5297 5299 5300 5301 5300 5297 5300 5300 5302 5302 5308 5312 5322
5360 5377 5370 5363 5358 5351 5343 5336 5334 5330 5324 5321 5311 5311 5308 5307 5307 5305 5305 5301 5297 5292 5291 5291 5294 5292 5289 5290 5288 5285 5286 5290 5292 5292 5294 5294 5290 5289 5289 5292 5291 5295 5300 5307
5340 5342 5341 5343 5334 5330 5326 5320 5314 5313 5305 5300 5296 5296 5290 5291 5291 5291 5291 5291 5286 5284 5283 5284 5286 5288 5288 5285 5281 5277 5279 5281 5282 5282 5280 5280 5280 5280 5280 5283 5278 5282 5290 5293
5337 5328 5321 5332 5324 5317 5303 5303 5298 5291 5289 5286 5280 5278 5281 5281 5284 5281 5280 5282 5280 5279 5273 5277 5280 5280 5282 5281 5274 5271 5270 5272 5272 5270 5269 5268 5266 5271 5273 5271 5270 5272 5277 5280
5323 5320 5313 5312 5311 5308 5295 5289 5282 5275 5275 5272 5275 5272 5272 5271 5273 5273 5276 5273 5271 5270 5271 5270 5271 5270 5277 5275 5268 5265 5262 5264 5262 5262 5259 5257 5258 5256 5259 5271 5263 5266 5268 5272
5303 5296 5296 5298 5289 5292 5282 5280 5275 5269 5265 5265 5266 5267 5266 5263 5264 5263 5264 5266 5265 5260 5260 5260 5261 5264 5269 5263 5258 5257 5256 5256 5253 5254 5252 5250 5249 5249 5247 5248 5257 5260 5262 5265
5299 5289 5284 5288 5283 5274 5270 5265 5259 5261 5263 5262 5262 5258 5257 5254 5254 5256 5256 5254 5250 5247 5248 5251 5251 5254 5254 5250 5247 5246 5246 5246 5246 5245 5244 5244 5243 5242 5242 5243 5247 5254 5259 5263
5291 5283 5274 5265 5264 5264 5260 5257 5251 5253 5253 5251 5250 5250 5248 5248 5246 5245 5244 5242 5236 5239 5245 5244 5245 5247 5244 5243 5240 5238 5240 5242 5241 5240 5241 5240 5239 5239 5240 5241 5244 5250 5255 5259
5267 5270 5268 5263 5258 5258 5255 5250 5245 5243 5241 5241 5241 5240 5239 5238 5238 5238 5238 5237 5236 5235 5235 5237 5238 5240 5238 5238 5235 5236 5236 5237 5237 5237 5236 5236 5236 5237 5238 5241 5244 5248 5255 5259
5258 5259 5255 5248 5246 5245 5245 5243 5241 5239 5237 5238 5237 5235 5233 5232 5231 5233 5234 5235 5234 5233 5239 5234 5234 5235 5238 5236 5234 5234 5234 5235 5235 5235 5236 5235 5235 5236 5238 5242 5245 5250 5256 5263
5255 5251 5250 5249 5246 5243 5241 5242 5241 5239 5238 5237 5234 5232 5232 5232 5232 5233 5232 5229 5227 5230 5240 5235 5236 5237 5237 5236 5235 5235 5235 5234 5235 5235 5234 5236 5237 5238 5241 5244 5249 5254 5261 5270
5254 5253 5249 5248 5249 5245 5244 5245 5242 5240 5240 5238 5237 5236 5235 5236 5236 5235 5233 5232 5232 5233 5237 5236 5236 5236 5237 5238 5237 5236 5235 5235 5235 5236 5237 5239 5241 5244 5248 5252 5256 5263 5270 5276
5251 5252 5250 5250 5251 5250 5248 5247 5246 5246 5246 5244 5243 5242 5241 5242 5240 5239 5237 5237 5240 5239 5239 5239 5239 5239 5239 5238 5238 5239 5239 5241 5243 5246 5250 5253 5255 5255 5254 5255 5261 5269 5276 5282
5252 5252 5253 5253 5253 5254 5254 5253 5253 5252 5251 5250 5248 5247 5247 5245 5242 5240 5238 5239 5242 5241 5241 5240 5239 5239 5239 5243 5245 5247 5249 5252 5255 5256 5255 5253 5256 5258 5261 5264 5268 5274 5280 5287
5253 5254 5256 5257 5257 5259 5259 5257 5256 5255 5254 5252 5251 5250 5247 5246 5243 5240 5241 5241 5240 5240 5241 5241 5242 5244 5247 5250 5251 5254 5257 5256 5253 5254 5254 5256 5258 5261 5265 5269 5274 5279 5282 5286
5256 5258 5259 5260 5260 5259 5257 5259 5258 5257 5256 5256 5254 5253 5250 5248 5245 5243 5241 5241 5242 5242 5242 5243 5246 5250 5254 5254 5255 5257 5254 5254 5255 5257 5257 5260 5261 5263 5268 5270 5272 5275 5277 5280
5257 5258 5258 5259 5259 5260 5261 5259 5257 5258 5257 5256 5256 5253 5250 5248 5245 5246 5243 5243 5244 5244 5245 5248 5253 5255 5254 5255 5255 5255 5255 5256 5259 5259 5259 5261 5262 5263 5264 5267 5268 5269 5271 5273
5257 5257 5258 5258 5257 5255 5252 5252 5251 5253 5253 5253 5253 5252 5250 5249 5248 5247 5246 5247 5247 5248 5251 5253 5253 5253 5253 5254 5254 5254 5255 5257 5259 5260 5261 5262 5262 5263 5263 5264 5264 5265 5266 5267
5256 5257 5256 5254 5250 5247 5244 5245 5246 5246 5247 5247 5248 5248 5248 5249 5248 5249 5249 5248 5250 5253 5253 5251 5251 5253 5252 5252 5253 5253 5254 5256 5259 5259 5259 5260 5261 5261 5261 5261 5261 5261 5261 5261